SCP
0 0 0 0 0 0 0 0 0 0 0 0 0 0 0 0 0 0 0 0 0 0 0 0 0 0 0 0 0 0 0 0 0 0 0 0 0 0 0 0 0 0 0 0
0 0 0 0 0 0 0 0 0 0 0 0 0 0 0 0 0 0 0 0 0 0 0 0 0 0 0 0 0 0 0 0 0 0 0 0 0 0 0 0 0 0 0 0
0 0 0 0 0 0 0 0 0 0 0 0 0 0 0 0 0 0 0 0 0 0 0 0 0 0 0 0 0 0 0 0 0 0 0 0 0 0 0 0 0 0 0 0
0 0 0 0 0 0 0 0 0 0 0 0 0 0 0 0 0 0 0 0 0 0 0 0 0 0 0 0 0 0 0 0 0 0 0 0 0 0 0 0 0 0 0 0
0 0 0 0 0 0 0 0 0 0 0 0 0 0 0 0 0 0 0 0 0 0 0 0 0 0 0 0 0 0 0 0 0 0 0 0 0 0 0 0 0 0 0 0
0 0 0 0 0 0 0 0 0 0 0 0 0 0 0 0 0 0 0 0 0 0 0 0 0 0 0 0 0 0 0 0 0 0 0 0 0 0 0 0 0 0 0 0
0 0 0 0 0 0 0 0 0 0 0 0 0 0 0 0 0 0 0 0 0 0 0 0 0 0 0 0 0 0 0 0 0 0 0 0 0 0 0 0 0 0 0 0
0 0 0 0 0 0 0 0 0 0 0 0 0 0 0 0 0 0 0 0 0 0 0 0 0 0 0 0 0 0 0 0 0 0 0 0 0 0 0 0 0 0 0 0
0 0 0 0 0 0 0 0 0 0 0 0 0 0 0 0 0 0 0 0 0 0 0 0 0 0 0 0 0 0 0 0 0 0 0 0 0 0 0 0 0 0 0 0
0 0 0 0 0 0 0 0 0 0 0 0 0 0 0 0 0 0 0 0 0 0 0 0 0 0 0 0 0 0 0 0 0 0 0 0 0 0 0 0 0 0 0 0
0 0 0 0 0 0 0 0 0 0 0 0 0 0 0 0 0 0 0 0 0 0 0 0 0 0 0 0 0 0 0 0 0 0 0 0 0 0 0 0 0 0 0 0
0 0 0 0 0 0 0 0 0 0 0 0 0 0 0 0 0 0 0 0 0 0 0 0 0 0 0 0 0 0 0 0 0 0 0 0 0 0 0 0 0 0 0 0
0 0 0 0 0 0 0 0 0 0 0 0 0 0 0 0 0 0 0 0 0 0 0 0 0 0 0 0 0 0 0 0 0 0 0 0 0 0 0 0 0 0 0 0
0 0 0 0 0 0 0 0 0 0 0 0 0 0 0 0 0 0 0 0 0 0 0 0 0 0 0 0 0 0 0 0 0 0 0 0 0 0 0 0 0 0 0 0
0 0 0 0 0 0 0 0 0 0 0 0 0 0 0 0 0 0 0 0 0 0 0 0 0 0 0 0 0 0 0 0 0 0 0 0 0 0 0 0 0 0 0 0
0 0 0 0 0 0 0 0 0 0 0 0 0 0 0 0 0 0 0 0 0 0 0 0 0 0 0 0 0 0 0 0 0 0 0 0 0 0 0 0 0 0 0 0
0 0 0 0 0 0 0 0 0 0 0 0 0 0 0 0 0 0 0 0 0 0 0 0 0 0 0 0 0 0 0 0 0 0 0 0 0 0 0 0 0 0 0 0
0 0 0 0 0 0 0 0 0 0 0 0 0 0 0 0 0 0 0 0 0 0 0 0 0 0 0 0 0 0 0 0 0 0 0 0 0 0 0 0 0 0 0 0
0 0 0 0 0 0 0 0 0 0 0 0 0 0 0 0 0 0 0 0 0 0 0 0 0 0 0 0 0 0 0 0 0 0 0 0 0 0 0 0 0 0 0 0
0 0 0 0 0 0 0 0 0 0 0 0 0 0 0 0 0 0 0 0 0 0 0 0 0 0 0 0 0 0 0 0 0 0 0 0 0 0 0 0 0 0 0 0
0 0 0 0 0 0 0 0 0 0 0 0 0 0 0 0 0 0 0 0 0 0 0 0 0 0 0 0 0 0 0 0 0 0 0 0 0 0 0 0 0 0 0 0
0 0 0 0 0 0 0 0 0 0 0 0 0 0 0 0 0 0 0 0 0 0 0 0 0 0 0 0 0 0 0 0 0 0 0 0 0 0 0 0 0 0 0 0
0 0 0 0 0 0 0 0 0 0 0 0 0 0 0 0 0 0 0 0 0 0 0 0 0 0 0 0 0 0 0 0 0 0 0 0 0 0 0 0 0 0 0 0
0 0 0 0 0 0 0 0 0 0 0 0 0 0 0 0 0 0 0 0 0 0 0 0 0 0 0 0 0 0 0 0 0 0 0 0 0 0 0 0 0 0 0 0
0 0 0 0 0 0 0 0 0 0 0 0 0 0 0 0 0 0 0 0 0 0 0 0 0 0 0 0 0 0 0 0 0 0 0 0 0 0 0 0 0 0 0 0
0 0 0 0 0 0 0 0 0 0 0 0 0 0 0 0 0 0 0 0 0 0 0 0 0 0 0 0 0 0 0 0 0 0 0 0 0 0 0 0 0 0 0 0
Wind_Speed
2 3 4 7 6 3 3 3 5 5 2 3 8 13 13 8 7 10 10 9 10 11 7 6 6 6 6 5 6 6 5 5 4 3 3 2 2 1 1 2 2 2 2 2
3 4 5 2 3 2 2 4 5 4 1 2 6 13 12 10 10 11 12 12 12 9 6 6 6 7 7 7 6 6 6 6 5 4 3 2 2 2 1 1 2 2 2 2
6 2 2 4 3 3 4 5 5 4 3 2 5 11 7 6 6 7 9 10 10 11 10 8 8 8 8 8 8 7 7 7 6 5 4 3 3 2 1 1 1 1 1 2
3 2 2 2 3 5 5 3 3 2 2 4 1 8 9 5 6 8 10 9 9 9 8 8 8 8 9 9 8 8 7 7 6 6 5 6 4 3 3 2 1 1 1 2
3 1 2 3 4 5 3 1 2 1 1 3 2 5 12 3 7 9 9 9 8 8 8 9 9 9 8 8 7 7 7 7 7 7 7 6 4 3 2 2 2 2 1 1
2 1 1 2 0 3 3 3 3 3 2 5 5 6 11 5 8 5 4 5 6 6 6 7 6 5 6 6 6 6 7 7 7 7 7 7 7 5 5 4 3 2 1 1
2 2 1 1 2 1 2 4 3 4 2 8 3 5 13 8 6 5 5 6 5 5 5 6 6 6 7 7 8 7 8 7 7 7 7 7 7 7 6 5 4 3 2 2
2 4 3 2 4 5 4 5 6 5 5 5 2 9 11 6 4 5 5 4 3 3 4 5 6 7 7 7 7 8 8 8 8 7 7 6 6 5 4 4 4 4 3 3
5 4 1 1 1 5 4 3 3 3 0 4 7 8 11 4 4 3 3 2 2 3 3 4 5 5 6 7 7 8 8 7 7 8 7 6 6 5 5 4 3 3 2 2
5 2 2 1 1 1 2 5 4 3 3 5 7 5 6 5 4 3 3 3 3 2 2 3 4 4 5 5 5 6 7 7 7 7 7 6 6 5 5 4 4 4 3 3
3 3 1 0 4 5 3 3 3 3 3 4 4 8 6 5 3 3 5 4 3 3 3 3 3 3 4 4 5 5 6 6 6 6 6 6 5 5 5 4 4 4 3 4
3 4 2 5 2 1 3 4 6 4 4 4 4 9 4 3 3 3 4 4 2 2 2 2 2 3 3 4 5 5 6 6 6 6 6 5 5 5 5 5 5 4 4 4
5 5 2 3 2 1 3 3 4 2 2 4 5 10 3 2 3 3 3 3 2 1 1 1 1 3 4 4 5 5 5 6 5 6 6 5 5 6 6 5 4 4 4 3
3 4 6 8 5 5 5 5 6 5 5 6 10 11 9 7 6 5 4 3 2 2 2 2 2 3 3 4 5 5 5 5 6 6 6 6 6 6 5 5 4 4 4 4
3 4 4 4 3 3 6 7 9 11 11 10 10 11 13 9 6 6 4 3 2 3 3 4 4 3 3 3 4 5 5 5 6 6 6 6 5 5 4 4 4 4 4 4
3 3 2 4 3 3 7 9 11 13 11 12 12 15 10 7 4 4 4 4 4 5 6 5 4 4 4 4 5 5 5 6 6 7 7 5 5 5 5 5 4 4 4 4
3 4 3 4 3 3 9 11 13 8 9 9 15 15 6 6 6 6 5 5 6 7 6 6 6 6 5 5 5 6 6 5 6 6 5 5 5 5 5 4 4 4 4 4
5 4 3 1 1 8 9 2 7 9 8 10 9 8 7 8 7 6 5 6 7 7 6 6 5 5 4 3 3 4 4 5 5 5 5 5 5 5 4 4 5 4 3 4
5 6 4 3 4 10 8 2 4 6 9 8 13 12 8 5 5 5 4 5 7 6 5 4 4 4 3 3 3 4 4 5 5 5 5 5 5 5 5 5 5 4 4 4
2 3 4 4 4 9 6 2 2 2 7 4 7 10 6 0 3 6 4 3 5 4 3 2 1 1 2 2 3 5 5 5 6 6 5 5 5 6 6 5 4 3 4 4
4 3 4 5 6 11 7 1 3 4 6 3 2 4 3 5 6 4 4 4 3 3 2 1 1 2 2 3 4 5 5 6 5 3 3 4 4 5 4 3 3 3 3 3
9 7 7 6 6 11 3 4 6 6 3 3 2 2 3 5 5 4 4 4 3 2 2 0 1 1 1 3 4 4 5 4 3 4 4 4 4 3 3 4 3 3 3 3
8 9 7 10 10 4 4 6 4 1 3 3 3 3 3 4 5 5 4 4 3 3 2 1 1 1 1 2 3 4 3 2 3 4 4 3 3 3 4 4 4 3 3 3
5 2 3 6 8 6 6 5 4 3 5 5 4 4 3 4 5 5 5 4 3 3 2 1 0 1 2 1 2 2 1 3 4 4 4 3 4 3 3 3 3 4 4 4
6 5 4 7 8 6 5 6 6 6 5 5 5 4 4 4 5 5 4 4 3 3 2 1 1 2 3 1 2 1 2 3 4 4 3 3 3 4 3 3 3 4 4 5
7 8 8 9 6 5 6 4 4 5 5 5 5 5 4 4 5 4 4 4 3 2 2 2 2 2 3 2 2 1 2 3 4 4 3 3 3 3 3 3 2 4 4 5
Wind_Direction
59 100 204 210 198 201 177 205 249 259 264 230 252 265 268 258 238 243 244 241 238 238 232 206 198 190 181 179 178 178 175 169 156 148 144 138 135 126 95 84 71 68 67 69
66 243 234 175 170 176 200 238 259 285 304 247 281 275 266 244 231 228 230 233 234 233 221 206 195 186 186 186 186 184 184 180 176 169 153 134 127 126 114 95 78 71 78 79
188 232 181 162 173 190 222 220 237 258 323 305 312 293 267 258 239 239 232 231 229 221 218 207 197 194 189 190 191 190 188 184 175 157 129 109 92 80 92 102 105 71 85 91
226 257 169 169 200 183 239 225 208 233 295 296 350 294 283 260 266 245 236 230 229 221 210 204 197 197 199 197 190 190 185 179 171 160 158 159 165 172 186 171 154 106 99 101
235 210 169 202 217 179 199 116 136 164 212 298 251 253 282 288 267 256 238 230 228 219 207 203 200 199 198 190 186 187 180 178 172 171 172 169 170 169 146 135 133 126 113 101
248 271 227 204 119 159 146 85 64 58 69 273 224 207 277 242 235 259 251 230 226 218 210 204 198 188 185 179 179 178 178 180 175 175 176 176 173 166 156 158 159 157 148 140
308 276 262 142 96 63 132 106 26 345 326 253 200 216 253 252 236 241 257 253 239 216 200 193 188 188 186 182 182 180 180 182 178 178 182 182 179 173 175 176 176 172 173 183
185 264 221 193 173 173 192 161 170 210 241 278 221 235 255 262 262 258 262 262 238 211 200 197 194 190 189 188 185 182 184 185 180 181 184 181 178 177 181 182 177 182 188 189
184 239 339 247 228 149 155 201 171 138 219 283 262 272 295 287 286 289 292 290 256 227 204 196 189 188 188 189 190 187 185 185 183 182 180 180 179 180 179 176 175 175 179 173
157 206 298 309 67 350 160 148 122 150 199 258 280 265 261 294 291 301 291 275 265 243 212 199 193 192 194 193 188 182 184 186 182 180 182 180 180 180 176 169 177 179 177 171
141 148 292 248 202 191 153 159 161 164 184 192 267 270 229 241 270 269 271 270 251 230 217 209 205 197 186 176 176 181 184 180 179 181 180 176 176 174 171 178 185 183 177 177
161 137 217 239 260 241 193 182 158 176 230 215 235 269 271 232 269 272 279 283 271 241 223 207 198 184 177 182 184 186 184 184 184 177 174 177 173 170 177 186 189 181 180 184
153 136 98 338 315 306 242 222 200 169 159 191 210 262 292 329 320 301 281 285 276 253 246 227 196 195 196 195 192 192 188 186 177 170 173 175 177 181 190 192 186 180 181 184
131 159 186 206 223 187 220 226 200 177 202 225 231 257 289 298 300 303 293 281 275 260 243 234 229 222 214 206 198 194 192 182 174 172 177 184 189 192 194 188 184 185 183 185
137 200 228 253 265 217 230 225 208 214 218 222 244 248 263 269 268 276 279 281 280 277 261 241 233 229 220 210 204 197 193 183 176 177 186 196 193 185 182 184 188 187 187 194
147 180 189 271 265 246 261 244 223 229 236 243 262 268 263 276 276 273 272 268 262 260 253 248 239 232 223 216 209 198 196 189 177 184 194 191 181 181 185 188 185 186 191 193
171 154 166 254 284 333 268 227 207 212 215 208 235 251 272 279 268 257 255 254 254 256 251 241 233 227 225 218 206 200 196 177 177 186 190 185 181 185 190 183 179 190 197 192
169 155 158 195 84 239 244 198 197 216 229 218 242 263 257 256 270 262 245 249 260 261 253 241 233 232 226 214 202 187 167 168 174 182 188 186 183 188 183 179 188 196 193 196
181 157 150 159 228 274 288 241 176 207 255 228 239 258 269 290 316 291 258 247 252 256 253 245 230 220 205 193 181 162 163 168 176 189 194 190 185 185 184 191 196 192 189 202
148 141 146 161 201 243 256 255 189 140 277 262 227 250 262 140 280 279 306 286 277 282 270 254 242 195 179 183 160 160 172 178 196 200 198 189 183 183 190 196 192 185 186 202
153 166 187 194 228 259 257 243 117 173 255 306 233 248 220 208 234 283 315 311 301 298 291 265 170 189 199 169 159 172 181 203 208 187 177 176 180 185 184 177 172 172 180 186
178 177 189 172 213 251 215 143 189 228 301 324 309 271 240 248 276 295 300 301 308 318 322 317 174 235 204 161 165 182 205 212 169 161 167 175 174 172 163 161 166 167 169 179
206 194 189 197 219 249 188 213 236 288 294 297 296 290 268 270 275 287 293 296 299 294 291 300 211 245 242 177 176 197 214 161 156 160 173 175 166 166 162 166 170 168 174 186
244 219 204 247 259 262 256 257 268 263 262 277 284 286 266 265 275 283 292 297 298 297 292 290 224 240 257 233 221 220 183 153 159 172 177 172 170 170 165 173 178 183 191 198
215 184 214 254 272 290 266 246 257 265 268 277 282 270 260 262 275 275 280 285 285 292 299 275 240 247 258 251 239 226 174 158 167 175 176 176 178 176 179 187 197 202 210 206
203 196 201 234 231 227 260 275 265 262 272 272 277 288 284 258 264 273 272 276 282 293 305 294 279 267 271 256 245 226 189 171 168 176 182 183 183 182 182 184 210 225 227 235